| time (UTC) | temp C | wind direction | speed KPH | gust KPH | rain 1hr cm | rain 24hr cm | rain mn cm | humidity % | barometer mb |
| 20260504191412 | 15 | 0.0 | 0.0 | 0.00 | 0.00 | 0.00 | 81 | ||
| 20260504190410 | 15 | 0.0 | 0.0 | 0.00 | 0.00 | 0.00 | 80 | ||
| 20260504185407 | 15 | 0.0 | 0.0 | 0.00 | 0.00 | 0.00 | 80 | ||
| 20260504183402 | 16 | 0.0 | 0.0 | 0.00 | 0.00 | 0.00 | 80 | ||
| 20260504182400 | 16 | 0.0 | 0.0 | 0.00 | 0.00 | 0.00 | 79 | ||
| 20260504181357 | 17 | 0.0 | 0.0 | 0.00 | 0.00 | 0.00 | 79 | ||
| 20260504180355 | 17 | 0.0 | 0.0 | 0.00 | 0.00 | 0.00 | 79 | ||
| 20260504175352 | 18 | 0.0 | 0.0 | 0.00 | 0.00 | 0.00 | 79 | ||
| 20260504174350 | 19 | 0.0 | 0.0 | 0.00 | 0.00 | 0.00 | 77 | ||
| 20260504173347 | 20 | 0.0 | 0.0 | 0.00 | 0.00 | 0.00 | 75 | ||
| 20260504172345 | 20 | 0.0 | 0.0 | 0.00 | 0.00 | 0.00 | 75 | ||
| 20260504171342 | 21 | 0.0 | 0.0 | 0.00 | 0.00 | 0.00 | 73 | ||
| 20260504170340 | 22 | 0.0 | 0.0 | 0.00 | 0.00 | 0.00 | 71 | ||
| 20260504160325 | 25 | 0.0 | 0.0 | 0.00 | 0.00 | 0.00 | 63 | ||
| 20260504150310 | 26 | 0.0 | 0.0 | 0.00 | 0.00 | 0.00 | 59 | ||
| 20260504141258 | 25 | 0.0 | 0.0 | 0.00 | 0.00 | 0.00 | 61 | ||
| 20260504140255 | 25 | 0.0 | 0.0 | 0.00 | 0.00 | 0.00 | 60 | ||
| 20260504130240 | 25 | 0.0 | 0.0 | 0.00 | 0.00 | 0.00 | 62 | ||
| 20260504120225 | 22 | 0.0 | 0.0 | 0.00 | 0.00 | 0.00 | 66 | ||
| 20260504110210 | 21 | 0.0 | 0.0 | 0.00 | 0.00 | 0.00 | 67 | ||
| 20260504100156 | 20 | 0.0 | 0.0 | 0.00 | 0.00 | 0.00 | 68 | ||
| 20260504090140 | 18 | 0.0 | 0.0 | 0.00 | 0.00 | 0.00 | 70 | ||
| 20260504081128 | 16 | 0.0 | 0.0 | 0.00 | 0.00 | 0.00 | 73 | ||
| 20260504080126 | 16 | 0.0 | 0.0 | 0.00 | 0.00 | 0.00 | 71 | ||
| 20260504070110 | 15 | 0.0 | 0.0 | 0.00 | 0.00 | 0.00 | 75 | ||
| 20260504045039 | 10 | 0.0 | 0.0 | 0.00 | 0.00 | 0.00 | 84 | ||
| 20260504044036 | 9 | 0.0 | 0.0 | 0.00 | 0.00 | 0.00 | 86 | ||
| 20260504043033 | 8 | 0.0 | 0.0 | 0.00 | 0.00 | 0.00 | 88 | ||
| 20260504042031 | 8 | 0.0 | 0.0 | 0.00 | 0.00 | 0.00 | 90 | ||
| 20260504041029 | 8 | 0.0 | 0.0 | 0.00 | 0.00 | 0.00 | 89 | ||
| 20260504040026 | 7 | 0.0 | 0.0 | 0.00 | 0.00 | 0.00 | 89 | ||
| 20260504035024 | 7 | 0.0 | 0.0 | 0.00 | 0.00 | 0.00 | 89 | ||
| 20260504034021 | 7 | 0.0 | 0.0 | 0.00 | 0.00 | 0.00 | 88 | ||
| 20260504033019 | 7 | 0.0 | 0.0 | 0.00 | 0.00 | 0.00 | 90 | ||
| 20260504032016 | 7 | 0.0 | 0.0 | 0.00 | 0.00 | 0.00 | 90 | ||
| 20260504031014 | 7 | 0.0 | 0.0 | 0.00 | 0.00 | 0.00 | 90 | ||
| 20260504030011 | 7 | 0.0 | 0.0 | 0.00 | 0.00 | 0.00 | 89 | ||
| 20260504025009 | 7 | 0.0 | 0.0 | 0.00 | 0.00 | 0.00 | 89 | ||
| 20260504024006 | 7 | 0.0 | 0.0 | 0.00 | 0.00 | 0.00 | 88 | ||
| 20260504023004 | 7 | 0.0 | 0.0 | 0.00 | 0.00 | 0.00 | 88 | ||
| 20260504022001 | 7 | 0.0 | 0.0 | 0.00 | 0.00 | 0.00 | 86 | ||
| 20260504020959 | 7 | 0.0 | 0.0 | 0.00 | 0.00 | 0.00 | 87 | ||
| 20260504015956 | 7 | 0.0 | 0.0 | 0.00 | 0.00 | 0.00 | 87 | ||
| 20260504014954 | 7 | 0.0 | 0.0 | 0.00 | 0.00 | 0.00 | 86 | ||
| 20260504013951 | 7 | 0.0 | 0.0 | 0.00 | 0.00 | 0.00 | 86 | ||
| 20260504012949 | 8 | 0.0 | 0.0 | 0.00 | 0.00 | 0.00 | 83 | ||
| 20260504011946 | 8 | 0.0 | 0.0 | 0.00 | 0.00 | 0.00 | 82 | ||
| 20260504010944 | 8 | 0.0 | 0.0 | 0.00 | 0.00 | 0.00 | 82 | ||
| 20260504005941 | 8 | 0.0 | 0.0 | 0.00 | 0.00 | 0.00 | 81 | ||
| 20260504004939 | 9 | 0.0 | 0.0 | 0.00 | 0.00 | 0.00 | 80 | ||
| 20260504003936 | 10 | 0.0 | 0.0 | 0.00 | 0.00 | 0.00 | 78 | ||
| 20260504002934 | 10 | 0.0 | 0.0 | 0.00 | 0.00 | 0.00 | 76 | ||
| 20260504001931 | 11 | 0.0 | 0.0 | 0.00 | 0.00 | 0.00 | 75 | ||
| 20260504000929 | 10 | 0.0 | 0.0 | 0.00 | 0.00 | 0.00 | 76 | ||
| 20260503235926 | 10 | 0.0 | 0.0 | 0.00 | 0.00 | 0.00 | 77 | ||
| 20260503234924 | 10 | 0.0 | 0.0 | 0.00 | 0.00 | 0.00 | 78 | ||
| 20260503233921 | 10 | 0.0 | 0.0 | 0.00 | 0.00 | 0.00 | 79 | ||
| 20260503232919 | 10 | 0.0 | 0.0 | 0.00 | 0.00 | 0.00 | 76 | ||
| 20260503231916 | 11 | 0.0 | 0.0 | 0.00 | 0.00 | 0.00 | 75 | ||
| 20260503230914 | 11 | 0.0 | 0.0 | 0.00 | 0.00 | 0.00 | 74 | ||
| 20260503225912 | 12 | 0.0 | 0.0 | 0.00 | 0.00 | 0.00 | 73 | ||
| 20260503224909 | 12 | 0.0 | 0.0 | 0.00 | 0.00 | 0.00 | 72 | ||
| 20260503223907 | 12 | 0.0 | 0.0 | 0.00 | 0.00 | 0.00 | 72 | ||
| 20260503222904 | 12 | 0.0 | 0.0 | 0.00 | 0.00 | 0.00 | 72 | ||
| 20260503221902 | 12 | 0.0 | 0.0 | 0.00 | 0.00 | 0.00 | 71 | ||
| 20260503220859 | 12 | 0.0 | 0.0 | 0.00 | 0.00 | 0.00 | 70 | ||
| 20260503215857 | 13 | 0.0 | 0.0 | 0.00 | 0.00 | 0.00 | 70 | ||
| 20260503214854 | 13 | 0.0 | 0.0 | 0.00 | 0.00 | 0.00 | 70 | ||
| 20260503213852 | 13 | 0.0 | 0.0 | 0.00 | 0.00 | 0.00 | 69 | ||
| 20260503212849 | 13 | 0.0 | 0.0 | 0.00 | 0.00 | 0.00 | 71 | ||
| 20260503211847 | 13 | 0.0 | 0.0 | 0.00 | 0.00 | 0.00 | 71 | ||
| 20260503210844 | 13 | 0.0 | 0.0 | 0.00 | 0.00 | 0.00 | 70 | ||
| 20260503205842 | 14 | 0.0 | 0.0 | 0.00 | 0.00 | 0.00 | 70 | ||
| 20260503204839 | 14 | 0.0 | 0.0 | 0.00 | 0.00 | 0.00 | 71 | ||
| 20260503203837 | 14 | 0.0 | 0.0 | 0.00 | 0.00 | 0.00 | 72 | ||
| 20260503202834 | 14 | 0.0 | 0.0 | 0.00 | 0.00 | 0.00 | 72 | ||
| 20260503201832 | 14 | 0.0 | 0.0 | 0.00 | 0.00 | 0.00 | 72 | ||
| 20260503200829 | 13 | 0.0 | 0.0 | 0.00 | 0.00 | 0.00 | 74 | ||
| 20260503195827 | 14 | 0.0 | 0.0 | 0.00 | 0.00 | 0.00 | 72 | ||
| 20260503194825 | 15 | 0.0 | 0.0 | 0.00 | 0.00 | 0.00 | 72 | ||
| 20260503193822 | 15 | 0.0 | 0.0 | 0.00 | 0.00 | 0.00 | 70 | ||
| 20260503192818 | 15 | 0.0 | 0.0 | 0.00 | 0.00 | 0.00 | 70 |